TimeEDT,TemperatureF,Dew PointF,Humidity,Sea Level PressureIn,VisibilityMPH,Wind Direction,Wind SpeedMPH,Gust SpeedMPH,PrecipitationIn,Events,Conditions,WindDirDegrees,DateUTC
12:52 AM,55.9,42.1,60,29.81,10.0,SSW,8.1,-,0.02,Rain,Light Rain,200,2013-03-11 04:52:00
1:52 AM,54.0,42.1,64,29.77,10.0,South,6.9,-,0.01,,Overcast,170,2013-03-11 05:52:00
2:52 AM,55.0,44.1,67,29.76,10.0,South,13.8,21.9,0.00,,Overcast,190,2013-03-11 06:52:00
3:52 AM,52.0,46.0,80,29.74,10.0,South,15.0,26.5,0.00,Rain,Light Rain,190,2013-03-11 07:52:00
4:52 AM,52.0,45.0,77,29.73,10.0,South,12.7,19.6,0.00,,Overcast,190,2013-03-11 08:52:00
5:52 AM,53.6,44.6,72,29.71,10.0,South,12.7,25.3,N/A,,Overcast,180,2013-03-11 09:52:00
6:52 AM,52.0,45.0,77,29.72,10.0,South,10.4,19.6,N/A,,Overcast,180,2013-03-11 10:52:00
7:52 AM,53.1,44.1,71,29.71,10.0,South,18.4,25.3,N/A,,Overcast,180,2013-03-11 11:52:00
8:52 AM,52.0,45.0,77,29.71,10.0,South,13.8,24.2,N/A,,Overcast,180,2013-03-11 12:52:00
9:52 AM,51.1,46.0,83,29.72,10.0,South,16.1,27.6,0.00,,Overcast,170,2013-03-11 13:52:00
10:52 AM,51.1,45.0,80,29.69,10.0,South,13.8,23.0,0.00,,Overcast,170,2013-03-11 14:52:00
11:41 AM,53.6,44.6,72,29.66,10.0,South,10.4,20.7,0.00,,Overcast,180,2013-03-11 15:41:00
11:52 AM,53.1,44.1,71,29.65,10.0,South,8.1,20.7,0.00,Rain,Light Rain,170,2013-03-11 15:52:00
12:17 PM,53.6,42.8,67,29.63,10.0,South,8.1,-,0.00,,Overcast,170,2013-03-11 16:17:00
12:43 PM,53.6,42.8,67,29.62,10.0,South,10.4,20.7,0.00,,Overcast,170,2013-03-11 16:43:00
12:52 PM,53.1,43.0,69,29.62,10.0,South,13.8,23.0,0.00,,Overcast,170,2013-03-11 16:52:00
1:18 PM,51.8,44.6,76,29.59,10.0,SSE,12.7,18.4,0.00,,Overcast,160,2013-03-11 17:18:00
1:48 PM,51.8,44.6,76,29.57,9.0,South,11.5,20.7,0.00,Rain,Light Rain,170,2013-03-11 17:48:00
1:52 PM,51.8,44.6,76,29.57,9.0,South,11.5,20.7,N/A,Rain,Light Rain,170,2013-03-11 17:52:00
2:21 PM,50.0,46.4,87,29.55,3.0,South,13.8,21.9,0.02,Rain,Rain,170,2013-03-11 18:21:00
2:24 PM,50.0,46.4,87,29.55,2.5,South,10.4,20.7,0.04,Rain,Heavy Rain,170,2013-03-11 18:24:00
2:39 PM,50.0,46.4,87,29.54,3.0,SSW,8.1,-,0.08,Rain,Rain,200,2013-03-11 18:39:00
2:47 PM,50.0,46.4,87,29.53,2.5,South,6.9,-,0.10,Rain,Rain,190,2013-03-11 18:47:00
2:52 PM,50.0,46.9,89,29.53,2.5,South,5.8,-,0.11,Rain,Rain,180,2013-03-11 18:52:00
3:08 PM,50.0,46.4,87,29.51,6.0,South,8.1,-,0.02,Rain,Light Rain,190,2013-03-11 19:08:00
3:18 PM,50.0,46.4,87,29.51,4.0,SW,9.2,-,0.03,Rain,Rain,220,2013-03-11 19:18:00
3:27 PM,50.0,46.4,87,29.49,2.0,South,6.9,-,0.06,Rain,Rain,170,2013-03-11 19:27:00
3:52 PM,51.1,48.0,89,29.51,2.0,SSW,13.8,23.0,0.10,Rain,Light Rain,210,2013-03-11 19:52:00
4:00 PM,51.8,48.2,88,29.52,2.0,SW,19.6,27.6,0.01,Rain,Light Rain,230,2013-03-11 20:00:00
4:23 PM,48.2,44.6,87,29.54,2.0,WSW,24.2,41.4,0.03,Rain,Rain,240,2013-03-11 20:23:00
4:52 PM,48.0,44.1,86,29.55,6.0,WSW,13.8,-,0.05,Rain,Light Rain,240,2013-03-11 20:52:00
5:52 PM,46.9,39.9,77,29.58,10.0,WSW,25.3,36.8,0.00,,Overcast,250,2013-03-11 21:52:00
6:13 PM,46.4,37.4,71,29.59,10.0,WSW,17.3,-,N/A,,Overcast,250,2013-03-11 22:13:00
6:52 PM,45.0,36.0,71,29.61,10.0,WSW,15.0,25.3,N/A,,Mostly Cloudy,240,2013-03-11 22:52:00
7:52 PM,43.0,33.1,68,29.65,10.0,SW,16.1,28.8,N/A,,Overcast,230,2013-03-11 23:52:00
8:29 PM,41.0,33.8,76,29.66,10.0,SW,18.4,29.9,N/A,,Overcast,220,2013-03-12 00:29:00
8:52 PM,39.9,33.1,77,29.68,10.0,WSW,20.7,28.8,N/A,,Overcast,240,2013-03-12 00:52:00
9:52 PM,37.4,30.2,75,29.70,10.0,SW,17.3,31.1,N/A,,Overcast,230,2013-03-12 01:52:00
10:52 PM,37.9,30.0,73,29.74,10.0,WSW,20.7,28.8,N/A,,Overcast,240,2013-03-12 02:52:00
11:52 PM,37.0,30.0,76,29.75,10.0,SW,13.8,26.5,N/A,,Overcast,230,2013-03-12 03:52:00